KA8DUX-2 Weather Reports


Display with metric or nautical units.
time (UTC)temp
F
wind
direction
speed
MPH
gust
MPH
rain 1hr
in
rain 24hr
in
rain mn
in
humidity
%
barometer
mb
20260906112442 54 132 0.0 0.0 0.00 0.00 0.00 99 1018.5
20260906111938 54 133 0.0 0.0 0.00 0.00 0.00 99 1018.4
20260906111437 54 130 0.0 0.0 0.00 0.00 0.00 99 1018.4
20260906110932 54 130 0.0 0.0 0.00 0.00 0.00 99 1018.4
20260906110428 55 130 0.0 0.0 0.00 0.00 0.00 99 1018.2
20260906105926 55 130 0.0 0.0 0.00 0.00 0.00 99 1018.3
20260906105422 55 130 0.0 0.0 0.00 0.00 0.00 99 1018.1
20260906104918 55 130 0.0 0.0 0.00 0.00 0.00 99 1018.1
20260906104416 55 126 0.0 0.0 0.00 0.00 0.00 99 1018.2
20260906103916 55 125 0.0 0.0 0.00 0.00 0.00 99 1018.1
20260906103414 55 126 0.0 0.0 0.00 0.00 0.00 99 1018.4
20260906102910 55 125 0.0 0.0 0.00 0.00 0.00 99 1018.2
20260906102409 55 124 0.0 0.0 0.00 0.00 0.00 99 1018.4
20260906101904 55 125 0.0 0.0 0.00 0.00 0.00 99 1018.2
20260906101359 55 125 0.0 0.0 0.00 0.00 0.00 99 1018.0
20260906100855 55 125 0.0 0.0 0.00 0.00 0.00 99 1018.0
20260906100354 55 128 0.0 0.0 0.00 0.00 0.00 99 1018.0
20260906095849 55 130 0.0 0.0 0.00 0.00 0.00 99 1018.0
20260906095344 56 124 0.0 0.0 0.00 0.00 0.00 99 1018.1
20260906094844 56 125 0.0 0.0 0.00 0.00 0.00 99 1017.9
20260906094339 56 126 0.0 0.0 0.00 0.00 0.00 99 1018.1
20260906093835 56 126 0.0 0.0 0.00 0.00 0.00 99 1018.2
20260906093331 56 131 0.0 0.0 0.00 0.00 0.00 99 1018.4
20260906092825 56 133 0.0 0.0 0.00 0.00 0.00 99 1018.1
20260906092320 56 132 0.0 0.0 0.00 0.00 0.00 99 1017.9
20260906091815 56 132 0.0 0.0 0.00 0.00 0.00 99 1018.1
20260906091312 56 132 0.0 0.0 0.00 0.00 0.00 99 1017.9
20260906090808 56 126 0.0 0.0 0.00 0.00 0.00 99 1017.7
20260906090306 56 128 0.0 0.0 0.00 0.00 0.00 99 1017.7
20260906085801 57 128 0.0 0.0 0.00 0.00 0.00 99 1017.8
20260906085300 57 127 0.0 0.0 0.00 0.00 0.00 99 1017.8
20260906084755 57 131 0.0 0.0 0.00 0.00 0.00 99 1017.6
20260906084254 57 128 0.0 0.0 0.00 0.00 0.00 99 1017.7
20260906083749 57 128 0.0 0.0 0.00 0.00 0.00 98 1017.7
20260906083245 57 128 0.0 0.0 0.00 0.00 0.00 98 1017.4
20260906082739 57 129 0.0 0.0 0.00 0.00 0.00 98 1017.6
20260906082235 57 139 0.0 0.0 0.00 0.00 0.00 98 1017.5
20260906081731 57 136 0.0 0.0 0.00 0.00 0.00 98 1017.2
20260906081225 57 138 0.0 0.0 0.00 0.00 0.00 98 1017.3
20260906080722 58 129 0.0 0.0 0.00 0.00 0.00 98 1017.4
20260906080218 58 131 0.0 0.0 0.00 0.00 0.00 98 1017.4
20260906075712 58 133 0.0 0.0 0.00 0.00 0.00 98 1017.3
20260906075206 58 131 0.0 0.0 0.00 0.00 0.00 97 1017.6
20260906074702 58 129 0.0 0.0 0.00 0.00 0.00 97 1017.4
20260906074201 58 129 0.0 0.0 0.00 0.00 0.00 97 1017.4
20260906073656 58 133 0.0 0.0 0.00 0.00 0.00 97 1017.1
20260906073151 58 130 0.0 0.0 0.00 0.00 0.00 97 1017.4
20260906072647 58 145 0.0 0.0 0.00 0.00 0.00 97 1017.2
20260906072142 58 133 0.0 0.0 0.00 0.00 0.00 97 1017.3
20260906071638 58 131 0.0 0.0 0.00 0.00 0.00 97 1017.3
20260906071132 58 130 0.0 0.0 0.00 0.00 0.00 97 1017.1
20260906070629 58 129 0.0 0.0 0.00 0.00 0.00 97 1017.2
20260906070125 58 126 0.0 0.0 0.00 0.00 0.00 97 1017.3
20260906065624 58 124 0.0 0.0 0.00 0.00 0.00 97 1017.3
20260906065120 58 123 0.0 0.0 0.00 0.00 0.00 96 1017.3
20260906064615 59 121 0.0 0.0 0.00 0.00 0.00 96 1017.4
20260906064110 59 125 0.0 0.0 0.00 0.00 0.00 95 1017.6
20260906063605 59 125 0.0 0.0 0.00 0.00 0.00 95 1017.5
20260906063101 59 128 0.0 0.0 0.00 0.00 0.00 95 1017.5
20260906062557 59 125 0.0 0.0 0.00 0.00 0.00 94 1017.5
20260906062056 59 133 0.0 0.0 0.00 0.00 0.00 93 1017.3
20260906061552 60 135 0.0 0.0 0.00 0.00 0.00 93 1017.5
20260906061051 60 128 0.0 0.0 0.00 0.00 0.00 92 1017.3
20260906060548 60 125 0.0 0.0 0.00 0.00 0.00 92 1017.4
20260906060045 60 128 0.0 0.0 0.00 0.00 0.00 91 1017.1
20260906055541 60 127 0.0 0.0 0.00 0.00 0.00 91 1017.4
20260906055035 61 126 0.0 0.0 0.00 0.00 0.00 91 1017.3
20260906054530 61 124 0.0 0.0 0.00 0.00 0.00 91 1017.2
20260906054025 61 136 0.0 0.0 0.00 0.00 0.00 91 1017.3
20260906053521 61 127 0.0 0.0 0.00 0.00 0.00 91 1017.0
20260906053017 61 132 0.0 0.0 0.00 0.00 0.00 90 1017.1
20260906052512 62 127 0.0 0.0 0.00 0.00 0.00 90 1017.2
20260906052010 62 130 0.0 0.0 0.00 0.00 0.00 89 1017.1
20260906051505 62 134 0.0 0.0 0.00 0.00 0.00 89 1016.9
20260906051000 62 133 0.0 0.0 0.00 0.00 0.00 89 1016.9
20260906050500 62 124 0.0 0.0 0.00 0.00 0.00 89 1017.0
20260906045954 63 116 0.0 0.0 0.00 0.00 0.00 89 1016.9
20260906045453 63 122 1.0 1.0 0.00 0.00 0.00 89 1016.9
20260906044949 63 130 0.0 0.0 0.00 0.00 0.00 88 1017.1
20260906044444 63 128 0.0 0.0 0.00 0.00 0.00 88 1016.9
20260906043940 63 120 0.0 0.0 0.00 0.00 0.00 88 1016.7
20260906043435 64 132 0.0 0.0 0.00 0.00 0.00 88 1016.7
20260906042931 64 128 0.0 0.0 0.00 0.00 0.00 87 1016.5
20260906042430 64 129 0.0 0.0 0.00 0.00 0.00 87 1016.5
20260906041925 65 126 0.0 0.0 0.00 0.00 0.00 86 1016.7
20260906041421 65 136 0.0 0.0 0.00 0.00 0.00 85 1016.4
20260906040921 65 111 0.0 0.0 0.00 0.00 0.00 85 1016.3
20260906040416 65 123 1.0 2.0 0.00 0.00 0.00 85 1016.4
20260906035911 65 134 1.0 1.0 0.00 0.68 0.68 85 1016.2
20260906035407 66 107 2.0 2.0 0.00 0.68 0.68 85 1016.3
20260906034901 66 135 1.0 1.0 0.00 0.68 0.68 85 1016.4
20260906034356 66 152 1.0 1.0 0.00 0.68 0.68 85 1016.4
20260906033852 66 113 0.0 1.0 0.00 0.68 0.68 86 1016.2
20260906033351 66 132 1.0 2.0 0.00 0.68 0.68 87 1016.2
20260906032848 66 118 0.0 0.0 0.00 0.68 0.68 87 1016.3
20260906032343 66 139 0.0 0.0 0.00 0.68 0.68 87 1016.4
20260906031838 66 128 0.0 0.0 0.00 0.68 0.68 87 1016.3
20260906031334 67 127 0.0 0.0 0.00 0.68 0.68 87 1016.4
20260906030834 67 162 0.0 1.0 0.00 0.68 0.68 87 1016.3
20260906030329 67 115 0.0 0.0 0.00 0.68 0.68 88 1016.0
20260906025823 66 219 3.0 5.0 0.00 0.68 0.68 88 1016.2
20260906025317 66 139 0.0 1.0 0.00 0.68 0.68 89 1015.9
20260906024816 67 123 0.0 0.0 0.00 0.68 0.68 89 1015.7
20260906024315 66 139 0.0 0.0 0.00 0.68 0.68 90 1015.7
20260906023811 66 131 1.0 1.0 0.00 0.68 0.68 90 1015.7
20260906023306 67 133 0.0 0.0 0.00 0.68 0.68 90 1015.8
20260906022802 67 115 0.0 0.0 0.00 0.68 0.68 89 1015.8
20260906022257 67 123 0.0 0.0 0.00 0.68 0.68 88 1015.8
20260906021753 67 152 0.0 1.0 0.00 0.68 0.68 88 1015.6
20260906021252 67 131 0.0 1.0 0.00 0.68 0.68 88 1015.6
20260906020747 67 131 0.0 0.0 0.00 0.68 0.68 88 1015.5
20260906020247 68 132 0.0 0.0 0.00 0.68 0.68 88 1015.4
20260906015741 68 179 0.0 1.0 0.00 0.68 0.68 88 1015.6
20260906015239 68 157 0.0 0.0 0.00 0.68 0.68 87 1015.7
20260906014734 68 126 0.0 0.0 0.00 0.68 0.68 87 1015.7
20260906014230 68 132 0.0 0.0 0.00 0.68 0.68 87 1015.6
20260906013726 69 135 0.0 0.0 0.00 0.68 0.68 86 1015.6
20260906013226 69 139 0.0 0.0 0.00 0.68 0.68 86 1015.4
20260906012721 69 132 0.0 0.0 0.00 0.68 0.68 86 1015.4
20260906012216 69 136 0.0 0.0 0.00 0.68 0.68 86 1015.5
20260906011711 69 160 2.0 3.0 0.00 0.68 0.68 85 1015.3
20260906011206 69 132 0.0 0.0 0.00 0.68 0.68 85 1015.1
20260906010701 69 132 0.0 0.0 0.00 0.68 0.68 86 1015.1
20260906010158 69 148 0.0 1.0 0.00 0.68 0.68 86 1015.0
20260906005657 69 130 2.0 2.0 0.00 0.68 0.68 87 1015.0
20260906005156 69 132 0.0 0.0 0.00 0.68 0.68 89 1015.0
20260906004655 69 134 0.0 0.0 0.00 0.68 0.68 89 1014.9
20260906004151 70 129 0.0 0.0 0.00 0.68 0.68 88 1014.8
20260906003646 70 123 0.0 0.0 0.00 0.68 0.68 89 1014.8
20260906003142 70 77 1.0 1.0 0.00 0.68 0.68 89 1014.8
20260906002636 70 132 0.0 0.0 0.00 0.68 0.68 90 1015.1
20260906002131 70 136 0.0 0.0 0.00 0.68 0.68 91 1014.8
20260906001626 70 129 0.0 0.0 0.00 0.68 0.68 90 1014.8
20260906001126 71 126 0.0 0.0 0.00 0.68 0.68 92 1014.6
20260906000622 71 131 0.0 0.0 0.00 0.68 0.68 91 1014.8
20260906000118 71 124 0.0 0.0 0.00 0.68 0.68 90 1014.6
20260905235616 72 127 0.0 0.0 0.00 0.68 0.68 89 1014.6
20260905235112 72 131 0.0 0.0 0.00 0.68 0.68 88 1014.6
20260905234607 73 122 0.0 1.0 0.00 0.68 0.68 88 1014.8
20260905234102 73 127 0.0 0.0 0.00 0.68 0.68 88 1014.9
20260905233602 73 126 0.0 0.0 0.00 0.68 0.68 88 1014.8
20260905233056 73 127 0.0 0.0 0.00 0.68 0.68 87 1014.5
20260905232552 74 123 0.0 0.0 0.00 0.68 0.68 85 1014.8
20260905232047 74 123 0.0 0.0 0.00 0.68 0.68 84 1014.8
20260905231543 74 50 1.0 1.0 0.00 0.68 0.68 82 1014.8
20260905231039 75 58 1.0 1.0 0.00 0.68 0.68 84 1014.8
20260905230538 76 123 0.0 0.0 0.00 0.68 0.68 82 1014.8
20260905230037 76 136 0.0 0.0 0.00 0.68 0.68 80 1014.5
20260905225531 77 144 0.0 0.0 0.00 0.68 0.68 81 1014.3
20260905225027 77 135 0.0 0.0 0.00 0.68 0.68 78 1014.3
20260905224521 77 152 0.0 1.0 0.00 0.68 0.68 79 1014.4
20260905224021 78 49 2.0 2.0 0.00 0.68 0.68 77 1014.3
20260905223519 78 329 2.0 2.0 0.00 0.68 0.68 78 1014.3
20260905223014 77 145 0.0 0.0 0.00 0.68 0.68 78 1014.4
20260905222514 77 209 1.0 1.0 0.00 0.68 0.68 79 1014.1
20260905222009 77 147 0.0 0.0 0.00 0.68 0.68 83 1014.2
20260905221506 77 117 0.0 0.0 0.00 0.68 0.68 81 1014.3
20260905221001 76 146 1.0 1.0 0.00 0.68 0.68 81 1014.1
20260905220457 76 148 1.0 1.0 0.00 0.68 0.68 81 1014.0
20260905215956 76 12 1.0 2.0 0.00 0.68 0.68 82 1014.0
20260905215452 76 139 0.0 0.0 0.00 0.68 0.68 86 1013.9
20260905214948 76 137 0.0 0.0 0.00 0.68 0.68 87 1014.0
20260905214444 75 145 1.0 1.0 0.00 0.68 0.68 88 1014.1
20260905213944 75 131 0.0 1.0 0.00 0.68 0.68 88 1013.9
20260905213440 75 130 0.0 0.0 0.00 0.68 0.68 91 1013.9
20260905212935 74 132 0.0 0.0 0.00 0.68 0.68 90 1014.3
20260905212430 74 127 0.0 0.0 0.00 0.68 0.68 92 1014.1
20260905211929 74 129 0.0 1.0 0.00 0.68 0.68 91 1014.2
20260905211425 74 115 1.0 1.0 0.00 0.68 0.68 91 1014.1
20260905210921 74 130 0.0 0.0 0.00 0.68 0.68 92 1014.0
20260905210421 74 301 3.0 3.0 0.00 0.68 0.68 91 1013.8
20260905205920 73 131 0.0 0.0 0.00 0.68 0.68 93 1014.1
20260905205415 73 131 1.0 2.0 0.00 0.68 0.68 93 1014.0
20260905204914 73 93 0.0 1.0 0.00 0.68 0.68 95 1013.9
20260905204410 73 125 0.0 0.0 0.00 0.68 0.68 95 1014.1
20260905203909 73 106 0.0 1.0 0.00 0.68 0.68 97 1014.2
20260905203405 72 92 1.0 2.0 0.00 0.68 0.68 97 1014.1
20260905202900 72 115 1.0 1.0 0.00 0.68 0.68 99 1014.4
20260905202355 72 316 2.0 2.0 0.00 0.68 0.68 99 1014.1
20260905201850 71 88 1.0 1.0 0.00 0.68 0.68 99 1014.4
20260905201346 71 121 0.0 1.0 0.00 0.68 0.68 99 1014.4
20260905200840 72 122 0.0 1.0 0.00 0.68 0.68 99 1014.5
20260905200337 71 134 0.0 1.0 0.00 0.68 0.68 99 1014.1
20260905195834 72 75 1.0 1.0 0.00 0.68 0.68 99 1014.2
20260905195329 71 122 0.0 0.0 0.00 0.68 0.68 99 1014.4
20260905194825 71 105 2.0 2.0 0.00 0.68 0.68 99 1014.3
20260905194325 71 90 0.0 0.0 0.00 0.68 0.68 99 1014.4
20260905193824 71 140 0.0 0.0 0.00 0.68 0.68 99 1014.5
20260905193319 70 129 0.0 0.0 0.00 0.68 0.68 99 1014.4
20260905192815 70 130 0.0 0.0 0.00 0.68 0.68 99 1014.5
20260905192311 70 121 0.0 0.0 0.00 0.68 0.68 99 1014.3
20260905191810 70 131 0.0 0.0 0.07 0.68 0.68 99 1014.6
20260905191308 69 127 0.0 0.0 0.07 0.68 0.68 99 1014.7
20260905190807 69 77 1.0 1.0 0.05 0.67 0.67 99 1014.6
20260905190301 69 105 2.0 2.0 0.12 0.67 0.67 99 1014.9
20260905185800 69 44 0.0 1.0 0.07 0.66 0.66 99 1014.9
20260905185254 69 81 1.0 1.0 0.05 0.65 0.65 99 1014.7
20260905184748 69 84 1.0 2.0 0.05 0.65 0.65 99 1014.8
20260905184248 69 36 2.0 2.0 0.00 0.64 0.64 99 1014.6
20260905183747 70 122 1.0 1.0 0.00 0.64 0.64 99 1014.8
20260905183242 69 131 0.0 0.0 0.00 0.64 0.64 99 1014.8
20260905182737 70 133 0.0 0.0 0.07 0.64 0.64 99 1015.0
20260905182236 69 125 0.0 0.0 0.07 0.64 0.64 99 1014.9
20260905181732 69 127 0.0 0.0 0.00 0.63 0.63 99 1015.0
20260905181231 69 132 0.0 0.0 0.05 0.63 0.63 99 1014.8
20260905180726 68 106 0.0 0.0 0.05 0.63 0.63 99 1014.8
20260905180220 69 61 0.0 1.0 0.07 0.62 0.62 99 1014.9
20260905175715 68 122 0.0 0.0 0.07 0.62 0.62 99 1014.6
20260905175209 68 123 0.0 1.0 0.00 0.61 0.61 99 1014.8
20260905174705 68 128 0.0 0.0 0.05 0.61 0.61 99 1014.8
20260905174201 68 140 0.0 0.0 0.12 0.61 0.61 99 1014.7
20260905173657 68 131 0.0 0.0 0.14 0.60 0.60 99 1014.7
20260905173152 68 119 0.0 0.0 0.31 0.59 0.59 99 1014.8
20260905172651 68 128 1.0 1.0 0.40 0.58 0.58 99 1014.8
20260905172145 68 94 0.0 1.0 0.40 0.54 0.54 99 1014.8
20260905171642 68 86 0.0 0.0 0.42 0.51 0.51 99 1014.7
20260905171137 68 127 0.0 0.0 0.92 0.47 0.47 99 1014.9
20260905170634 68 348 0.0 1.0 1.21 0.44 0.44 99 1014.9
20260905170129 68 136 0.0 0.0 1.13 0.32 0.32 99 1014.8
20260905165623 68 162 1.0 1.0 0.78 0.24 0.24 99 1015.0
20260905165119 68 111 1.0 1.0 0.31 0.14 0.14 99 1014.7
20260905164614 68 127 0.0 0.0 0.19 0.11 0.11 99 1014.8
20260905164113 68 144 0.0 0.0 0.24 0.09 0.09 99 1014.9
20260905163609 68 157 0.0 1.0 0.24 0.08 0.08 99 1014.8
20260905163105 68 123 0.0 0.0 0.17 0.06 0.06 99 1014.9
20260905162602 68 126 0.0 0.0 0.17 0.04 0.04 99 1014.9
20260905162101 68 124 0.0 0.0 0.19 0.03 0.03 98 1014.8
20260905161555 68 112 0.0 1.0 0.07 0.01 0.01 98 1014.9
20260905161053 68 319 3.0 3.0 0.00 0.00 0.00 97 1015.0
20260905160552 68 102 0.0 0.0 0.00 0.00 0.00 97 1015.0
20260905160052 68 128 0.0 0.0 0.00 0.00 0.00 98 1014.9
20260905155552 68 111 0.0 0.0 0.00 0.00 0.00 97 1014.9
20260905155050 68 95 1.0 2.0 0.00 0.00 0.00 97 1014.6
20260905154545 69 141 0.0 0.0 0.00 0.00 0.00 97 1014.6
20260905154041 69 89 1.0 1.0 0.00 0.00 0.00 96 1014.4
20260905153537 68 137 0.0 1.0 0.00 0.00 0.00 96 1014.3
20260905153037 69 222 2.0 2.0 0.00 0.00 0.00 95 1014.7
20260905152532 69 131 0.0 0.0 0.00 0.00 0.00 95 1014.7
20260905152027 69 129 0.0 0.0 0.00 0.00 0.00 95 1014.4
20260905151522 69 128 0.0 1.0 0.00 0.00 0.00 95 1014.5
20260905151017 69 121 0.0 0.0 0.00 0.00 0.00 95 1014.4
20260905150512 69 149 0.0 0.0 0.00 0.00 0.00 94 1014.4
20260905150010 69 35 3.0 3.0 0.00 0.00 0.00 94 1014.3
20260905145509 69 20 2.0 2.0 0.00 0.00 0.00 94 1014.4
20260905145003 69 206 2.0 3.0 0.00 0.00 0.00 93 1014.3
20260905144458 69 103 1.0 1.0 0.00 0.00 0.00 94 1014.1
20260905143957 69 96 1.0 1.0 0.00 0.00 0.00 94 1014.2
20260905143456 69 50 1.0 2.0 0.00 0.00 0.00 94 1014.3
20260905142951 69 108 1.0 1.0 0.00 0.00 0.00 94 1014.2
20260905142450 69 320 3.0 3.0 0.00 0.00 0.00 94 1014.2
20260905141946 68 61 2.0 3.0 0.00 0.00 0.00 94 1014.2
20260905141440 69 205 2.0 5.0 0.00 0.00 0.00 94 1014.1
20260905140937 68 135 0.0 0.0 0.00 0.00 0.00 94 1014.2
20260905140431 68 302 1.0 2.0 0.00 0.00 0.00 94 1013.9
20260905135930 68 226 0.0 0.0 0.00 0.00 0.00 95 1013.7
20260905135426 68 128 0.0 1.0 0.00 0.00 0.00 95 1013.9
20260905134921 68 84 1.0 1.0 0.00 0.00 0.00 95 1013.8
20260905134420 68 120 1.0 2.0 0.00 0.00 0.00 95 1014.0
20260905133915 68 280 2.0 2.0 0.00 0.00 0.00 95 1013.9
20260905133409 68 124 2.0 2.0 0.00 0.00 0.00 96 1014.0
20260905132909 68 27 2.0 3.0 0.00 0.00 0.00 96 1014.1
20260905132404 68 318 1.0 1.0 0.00 0.00 0.00 96 1013.9
20260905131858 68 144 1.0 1.0 0.00 0.00 0.00 96 1014.0
20260905131354 68 41 1.0 1.0 0.00 0.00 0.00 97 1013.8
20260905130849 68 132 0.0 0.0 0.00 0.00 0.00 97 1013.6
20260905130348 68 330 4.0 5.0 0.00 0.00 0.00 97 1013.9
20260905125843 68 91 1.0 1.0 0.00 0.00 0.00 97 1013.9
20260905125338 68 134 3.0 5.0 0.00 0.00 0.00 97 1013.8
20260905124835 68 353 0.0 1.0 0.00 0.00 0.00 98 1013.8
20260905124331 68 134 1.0 2.0 0.00 0.00 0.00 98 1013.7
20260905123830 68 105 2.0 2.0 0.00 0.00 0.00 98 1013.8
20260905123327 68 113 1.0 1.0 0.00 0.00 0.00 99 1013.6
20260905122827 68 181 0.0 1.0 0.00 0.00 0.00 99 1013.3
20260905122326 68 197 0.0 1.0 0.00 0.00 0.00 99 1013.6
20260905121821 68 130 0.0 1.0 0.00 0.00 0.00 99 1013.5
20260905121319 68 91 1.0 2.0 0.00 0.00 0.00 99 1013.4
20260905120817 68 127 0.0 0.0 0.00 0.00 0.00 99 1013.3
20260905120311 68 214 0.0 0.0 0.00 0.00 0.00 99 1013.1
20260905115806 68 121 0.0 0.0 0.00 0.00 0.00 99 1013.3
20260905115306 68 70 1.0 2.0 0.00 0.00 0.00 99 1013.2
20260905114800 68 64 0.0 1.0 0.00 0.00 0.00 99 1013.4
20260905114259 68 157 2.0 3.0 0.00 0.00 0.00 99 1013.3
20260905113759 68 75 0.0 1.0 0.00 0.00 0.00 99 1012.9
20260905113254 69 141 0.0 0.0 0.00 0.00 0.00 99 1012.9
20260905112749 69 111 0.0 0.0 0.00 0.00 0.00 99 1012.8